User: anonymous   Login
Location: SAPM � Hemmingford
(45.0500°N, 73.5833°W)
Time: 17:08:49
(UTC-04:00)
Language:

Cosmos 1674 Rocket - Orbit

View from above orbital plane
View from above orbital plane
View from above satellite
View from above satellite

Ground track
Ground track

The orbit data is extracted from the following two-line orbital elements,

1 15945U 85069B   15181.72201234  .00000146  00000-0  14653-4 0  9993
2 15945 082.5285 084.8551 0021087 126.9244 233.3907 14.83718288614630
Epoch (UTC): 30 June 2015 17:19:41
Eccentricity: 0.0021087
inclination: 82.5285°
perigee height: 603 km
apogee height: 632 km
right ascension of ascending node: 84.8551°
argument of perigee: 126.9244°
revolutions per day: 14.83718288
mean anomaly at epoch: 233.3907°
orbit number at epoch: 61463

The dashed part of the orbit path shows where the satellite is in the earth's shadow,  

DLR